• în Republica Moldova
  • Lista ţărilor
  • Pe 7 zile
  • Temperatura apei
  • Hartă satelitară
  • Meteo pe hartă
  • Widget-uri
  • user-avatar
    Intrare

    Meteo pe oră la Shkoder

    Astăzi, 22 Ianuarie, Duminică

    Timp Temperatura Precipitaţii Vânt Presiune Umiditate
    00:00 -2°C° 0 mm 3 m/s 749 mmHg 86%
    01:00 -2°C° 0 mm 3 m/s 749 mmHg 85%
    02:00 -2°C° 0 mm 3 m/s 749 mmHg 85%
    03:00 -2°C° 0 mm 3 m/s 749 mmHg 84%
    04:00 -2°C° 0 mm 3 m/s 749 mmHg 84%
    05:00 -4°C° 0 mm 3 m/s 749 mmHg 83%
    06:00 -4°C° 0 mm 3 m/s 749 mmHg 83%
    07:00 -4°C° 0 mm 3 m/s 749 mmHg 83%
    08:00 -1°C° 0 mm 3 m/s 749 mmHg 81%
    09:00 +3°C° 0 mm 2 m/s 749 mmHg 79%
    10:00 +5°C° 0 mm 2 m/s 749 mmHg 77%
    11:00 +5°C° 0 mm 2 m/s 748 mmHg 76%
    12:00 +6°C° 0 mm 2 m/s 748 mmHg 76%
    13:00 +7°C° 0 mm 2 m/s 748 mmHg 75%
    14:00 +6°C° 0 mm 2 m/s 747 mmHg 78%
    15:00 +5°C° 0 mm 2 m/s 747 mmHg 81%
    16:00 +4°C° 0 mm 2 m/s 747 mmHg 84%
    17:00 +3°C° 0 mm 2 m/s 747 mmHg 84%
    18:00 0°C° 0 mm 3 m/s 747 mmHg 84%
    19:00 -1°C° 0 mm 3 m/s 747 mmHg 85%
    20:00 -1°C° 0 mm 3 m/s 747 mmHg 84%
    21:00 -1°C° 0 mm 3 m/s 747 mmHg 83%
    22:00 -1°C° 0 mm 3 m/s 747 mmHg 82%
    23:00 -1°C° 0 mm 3 m/s 747 mmHg 81%

    Mâine, 23 Ianuarie, Luni

    Timp Temperatura Precipitaţii Vânt Presiune Umiditate
    00:00 -1°C° 0 mm 3 m/s 747 mmHg 80%
    01:00 -2°C° 0 mm 3 m/s 747 mmHg 80%
    02:00 -1°C° 0 mm 3 m/s 747 mmHg 79%
    03:00 -1°C° 0 mm 3 m/s 746 mmHg 79%
    04:00 -1°C° 0 mm 3 m/s 746 mmHg 78%
    05:00 -1°C° 0 mm 3 m/s 746 mmHg 79%
    06:00 -1°C° 0 mm 3 m/s 745 mmHg 79%
    07:00 -1°C° 0 mm 3 m/s 745 mmHg 80%
    08:00 +1°C° 0 mm 3 m/s 745 mmHg 79%
    09:00 +4°C° 0 mm 2 m/s 745 mmHg 78%
    10:00 +6°C° 0 mm 2 m/s 745 mmHg 77%
    11:00 +7°C° 0 mm 2 m/s 744 mmHg 78%
    12:00 +8°C° 0 mm 2 m/s 744 mmHg 78%
    13:00 +8°C° 0 mm 2 m/s 743 mmHg 78%
    14:00 +7°C° 0 mm 2 m/s 743 mmHg 81%
    15:00 +7°C° 0 mm 2 m/s 743 mmHg 84%
    16:00 +6°C° 0 mm 2 m/s 742 mmHg 87%
    17:00 +5°C° 0 mm 2 m/s 742 mmHg 87%
    18:00 +4°C° 0 mm 2 m/s 742 mmHg 87%
    19:00 +2°C° 0 mm 3 m/s 742 mmHg 87%
    20:00 +2°C° 0 mm 3 m/s 741 mmHg 87%
    21:00 +2°C° 0 mm 3 m/s 741 mmHg 87%
    22:00 +3°C° 0 mm 2 m/s 741 mmHg 87%
    23:00 +4°C° 0,1 mm 2 m/s 741 mmHg 87%

    Poimâine, 24 Ianuarie, Marţi

    Timp Temperatura Precipitaţii Vânt Presiune Umiditate
    00:00 +4°C° 0,1 mm 2 m/s 741 mmHg 86%
    01:00 +4°C° 0,1 mm 2 m/s 740 mmHg 86%
    02:00 +4°C° 0,3 mm 2 m/s 740 mmHg 87%
    03:00 +4°C° 0,3 mm 2 m/s 740 mmHg 88%
    04:00 +4°C° 0,3 mm 2 m/s 739 mmHg 89%
    05:00 +4°C° 0,3 mm 2 m/s 739 mmHg 89%
    06:00 +4°C° 0,3 mm 2 m/s 739 mmHg 89%
    07:00 +4°C° 0,3 mm 2 m/s 739 mmHg 89%
    08:00 +4°C° 0,3 mm 2 m/s 739 mmHg 89%
    09:00 +5°C° 0,3 mm 2 m/s 739 mmHg 88%
    10:00 +6°C° 0,3 mm 2 m/s 740 mmHg 87%
    11:00 +6°C° 0,4 mm 2 m/s 739 mmHg 87%
    12:00 +6°C° 0,4 mm 2 m/s 739 mmHg 87%
    13:00 +7°C° 0,4 mm 2 m/s 739 mmHg 87%
    14:00 +6°C° 0,4 mm 2 m/s 739 mmHg 88%
    15:00 +6°C° 0,4 mm 2 m/s 739 mmHg 89%
    16:00 +5°C° 0,4 mm 2 m/s 739 mmHg 91%
    17:00 +5°C° 0,3 mm 2 m/s 739 mmHg 91%
    18:00 +3°C° 0,3 mm 3 m/s 740 mmHg 91%
    19:00 +3°C° 0,3 mm 3 m/s 740 mmHg 91%
    20:00 +3°C° 0,2 mm 3 m/s 740 mmHg 91%
    21:00 +2°C° 0,2 mm 3 m/s 740 mmHg 91%
    22:00 +2°C° 0,2 mm 3 m/s 741 mmHg 90%
    23:00 +2°C° 0,2 mm 3 m/s 741 mmHg 90%

    25 Ianuarie, Miercuri

    Timp Temperatura Precipitaţii Vânt Presiune Umiditate
    00:00 +2°C° 0,2 mm 3 m/s 741 mmHg 90%
    01:00 +1°C° 0,2 mm 3 m/s 741 mmHg 90%
    02:00 +1°C° 0,1 mm 3 m/s 741 mmHg 89%
    03:00 +1°C° 0,1 mm 3 m/s 741 mmHg 89%
    04:00 -1°C° 0,1 mm 4 m/s 741 mmHg 89%
    05:00 -1°C° 0 mm 4 m/s 742 mmHg 89%
    06:00 -1°C° 0 mm 4 m/s 742 mmHg 88%
    07:00 -2°C° 0 mm 4 m/s 743 mmHg 88%
    08:00 -1°C° 0 mm 4 m/s 743 mmHg 86%
    09:00 0°C° 0 mm 4 m/s 743 mmHg 84%
    10:00 +1°C° 0 mm 4 m/s 744 mmHg 82%
    11:00 +1°C° 0 mm 4 m/s 743 mmHg 81%
    12:00 +3°C° 0 mm 4 m/s 743 mmHg 80%
    13:00 +4°C° 0 mm 4 m/s 743 mmHg 79%
    14:00 +3°C° 0 mm 4 m/s 743 mmHg 81%
    15:00 +3°C° 0 mm 4 m/s 744 mmHg 82%
    16:00 +1°C° 0 mm 4 m/s 744 mmHg 84%
    17:00 0°C° 0 mm 4 m/s 744 mmHg 85%
    18:00 -1°C° 0 mm 4 m/s 745 mmHg 86%
    19:00 -1°C° 0 mm 4 m/s 745 mmHg 87%
    20:00 -2°C° 0 mm 4 m/s 746 mmHg 86%
    21:00 -2°C° 0 mm 4 m/s 746 mmHg 86%
    22:00 -2°C° 0 mm 4 m/s 747 mmHg 86%
    23:00 -2°C° 0 mm 4 m/s 747 mmHg 86%

    26 Ianuarie, Joi

    Timp Temperatura Precipitaţii Vânt Presiune Umiditate
    00:00 -1°C° 0 mm 3 m/s 747 mmHg 86%
    01:00 -2°C° 0 mm 3 m/s 747 mmHg 85%
    02:00 -2°C° 0 mm 3 m/s 747 mmHg 85%
    03:00 -2°C° 0 mm 3 m/s 747 mmHg 85%
    04:00 -4°C° 0 mm 3 m/s 747 mmHg 85%
    05:00 -4°C° 0 mm 3 m/s 748 mmHg 84%
    06:00 -4°C° 0 mm 3 m/s 748 mmHg 84%
    07:00 -4°C° 0 mm 3 m/s 748 mmHg 83%
    08:00 -1°C° 0 mm 3 m/s 748 mmHg 80%
    09:00 0°C° 0 mm 3 m/s 749 mmHg 77%
    10:00 +2°C° 0 mm 3 m/s 749 mmHg 75%
    11:00 +2°C° 0 mm 3 m/s 749 mmHg 74%
    12:00 +3°C° 0 mm 3 m/s 749 mmHg 73%
    13:00 +4°C° 0 mm 3 m/s 748 mmHg 72%
    14:00 +4°C° 0 mm 2 m/s 749 mmHg 75%
    15:00 +4°C° 0 mm 2 m/s 749 mmHg 78%
    16:00 +3°C° 0 mm 2 m/s 749 mmHg 81%
    17:00 +2°C° 0 mm 2 m/s 749 mmHg 83%
    18:00 0°C° 0 mm 3 m/s 750 mmHg 84%
    19:00 -1°C° 0 mm 3 m/s 750 mmHg 85%
    20:00 -2°C° 0 mm 3 m/s 750 mmHg 85%
    21:00 -2°C° 0 mm 3 m/s 751 mmHg 84%
    22:00 -2°C° 0 mm 3 m/s 751 mmHg 84%
    23:00 -2°C° 0 mm 3 m/s 751 mmHg 83%

    27 Ianuarie, Vineri

    Timp Temperatura Precipitaţii Vânt Presiune Umiditate
    00:00 -4°C° 0 mm 3 m/s 751 mmHg 83%
    01:00 -4°C° 0 mm 3 m/s 751 mmHg 82%
    02:00 -4°C° 0 mm 3 m/s 751 mmHg 82%
    03:00 -3°C° 0 mm 2 m/s 751 mmHg 81%
    04:00 -3°C° 0 mm 2 m/s 751 mmHg 80%
    05:00 -3°C° 0 mm 2 m/s 751 mmHg 79%
    06:00 -3°C° 0 mm 2 m/s 751 mmHg 79%
    07:00 -3°C° 0 mm 2 m/s 751 mmHg 78%
    08:00 -1°C° 0 mm 2 m/s 752 mmHg 75%
    09:00 +2°C° 0 mm 2 m/s 752 mmHg 72%
    10:00 +6°C° 0 mm 1 m/s 752 mmHg 69%
    11:00 +7°C° 0 mm 1 m/s 752 mmHg 68%
    12:00 +8°C° 0 mm 1 m/s 751 mmHg 68%
    13:00 +9°C° 0 mm 1 m/s 751 mmHg 67%
    14:00 +7°C° 0 mm 1 m/s 751 mmHg 71%
    15:00 +6°C° 0 mm 1 m/s 751 mmHg 76%
    16:00 +4°C° 0 mm 1 m/s 751 mmHg 80%
    17:00 +3°C° 0 mm 1 m/s 751 mmHg 82%
    18:00 +1°C° 0 mm 1 m/s 751 mmHg 84%
    19:00 -1°C° 0 mm 1 m/s 750 mmHg 87%
    20:00 -1°C° 0 mm 1 m/s 751 mmHg 86%
    21:00 -1°C° 0 mm 1 m/s 751 mmHg 85%
    22:00 -1°C° 0 mm 1 m/s 751 mmHg 85%
    23:00 -1°C° 0 mm 1 m/s 750 mmHg 84%
    Arată mai mult